[[{"header":{"parameterUnit":"m.s-1","parameterCategory":1,"la1":30.2991,"la2":30.254,"lo1":-89.0895,"lo2":-89.0444,"dy":0.0017,"dx":0.0017,"nx":28,"ny":28,"refTime":"2024-02-09T09:00:00:Z","depth":0,"parameterNumber":2,"parameterNumberName":"U-component_of_WINDS"},"data":[0,0,0,0,0,0,0,0,0,0,0,0,0,0,0,0,0,0,0,0,0,0,0,0,0,0,0,0,0,0,0,0,0,0,0,0,0,0,0,0,0,0,0,0,0,0,0,0,0,0,0,0,0,0,0,0,0,0,-2.7232,-2.7233,0,-2.7322,-2.7323,-2.7324,-2.731,-2.7308,-2.7307,-2.7305,-2.7396,-2.74,-2.7404,0,0,0,0,0,0,0,0,0,0,0,0,0,-2.7048,-2.7052,-2.7232,-2.7233,-2.7234,-2.7322,-2.7323,-2.7324,-2.731,-2.7308,-2.7306,-2.7304,-2.7395,-2.7399,-2.7404,0,0,0,0,0,0,0,0,0,0,0,0,0,-2.7132,-2.7053,-2.7232,-2.7238,-2.7239,-2.7321,-2.7323,-2.7324,-2.731,-2.7308,-2.7306,-2.7304,-2.7393,-2.7399,-2.7405,-2.7487,0,0,-2.7422,-2.7425,0,0,0,0,0,0,0,0,-2.7127,-2.7139,-2.7236,-2.7237,-2.7239,-2.7302,-2.7292,-2.7379,-2.7311,-2.7283,-2.7305,-2.7302,-2.7367,-2.7375,-2.7396,-2.7491,-2.7495,-2.7423,-2.7426,-2.7429,-2.7431,0,0,0,0,0,0,0,-2.7121,-2.7135,-2.7267,-2.7237,-2.7239,-2.7236,-2.7245,-2.7308,-2.7337,-2.7285,-2.7285,-2.7296,-2.7367,-2.7391,-2.7398,-2.7496,-2.7423,-2.7428,-2.7431,-2.7434,-2.7663,-2.7666,0,0,0,0,0,0,-2.7114,-2.713,-2.7265,-2.727,-2.7176,-2.7241,-2.7252,-2.7284,-2.7336,-2.7342,-2.7297,-2.7295,-2.7382,-2.7392,-2.7402,-2.7501,-2.7429,-2.7434,-2.7438,-2.7661,-2.7664,-2.7667,0,0,0,0,0,0,-2.711,-2.7126,-2.7261,-2.72,-2.7217,-2.7247,-2.7284,-2.7287,-2.7311,-2.7345,-2.735,-2.7316,-2.7381,-2.7393,-2.7466,-2.7504,-2.7437,-2.7442,-2.7658,-2.7662,-2.7665,-2.7701,0,0,0,0,0,0,-2.7105,-2.7125,-2.7156,-2.7201,-2.722,-2.7324,-2.7286,-2.7291,-2.7321,-2.7318,-2.7364,-2.737,-2.738,-2.7457,-2.7472,-2.7511,-2.7447,-2.7654,-2.766,-2.7664,-2.7696,-2.7705,-2.7713,0,0,0,0,0,-2.7098,-2.7162,-2.7158,-2.7174,-2.726,-2.7326,-2.7337,-2.7348,-2.7324,-2.7356,-2.7378,-2.7368,-2.7498,-2.7465,-2.7481,-2.7522,-2.7652,-2.7658,-2.7664,-2.7692,-2.7704,-2.7713,0,0,0,0,0,0,-2.712,-2.7168,-2.7163,-2.7243,-2.7281,-2.7323,-2.7363,-2.7359,-2.7404,-2.7399,-2.741,-2.7421,-2.7495,-2.7516,-2.7478,-2.7605,-2.7572,-2.7581,-2.7588,-2.7599,-2.7607,-2.76,-2.7451,0,0,0,0,0,-2.7134,-2.7184,-2.7223,-2.729,-2.7309,-2.7333,-2.7362,-2.7368,-2.7407,-2.7422,-2.745,-2.7488,-2.7537,-2.7569,-2.7617,-2.77,-2.771,-2.7737,-2.7745,-2.7752,-2.7759,-2.7806,-2.7818,-2.7686,-2.7686,-2.7686,0,0,-2.7163,-2.7196,-2.7226,-2.7295,-2.7324,-2.7376,-2.7346,-2.7402,-2.744,-2.743,-2.75,-2.7522,-2.7566,-2.7644,-2.768,-2.7664,-2.7798,-2.7759,-2.7765,-2.7768,-2.7813,-2.7825,-2.7837,-2.769,-2.769,-2.7689,0,0,-2.7243,-2.7272,-2.7332,-2.7362,-2.7408,-2.7424,-2.7439,-2.7483,-2.7497,-2.7568,-2.7562,-2.7608,-2.7693,-2.7724,-2.7751,-2.7846,-2.7838,-2.7861,-2.7904,-2.7949,-2.796,-2.7969,-2.8003,-2.8014,-2.7869,-2.7869,-2.7869,0,-2.7273,-2.735,-2.7362,-2.7419,-2.7449,-2.7445,-2.7505,-2.7534,-2.7593,-2.7614,-2.7596,-2.7703,-2.7732,-2.7818,-2.7841,-2.7863,-2.788,-2.7855,-2.7957,-2.7967,-2.7976,-2.8008,-2.802,-2.7871,-2.7871,-2.7871,-2.787,0,-2.7386,-2.744,-2.7482,-2.754,-2.7575,-2.7633,-2.7654,-2.7689,-2.7692,-2.771,-2.7783,-2.7818,-2.7873,-2.7894,-2.7897,-2.7981,-2.797,-2.7955,-2.7921,-2.799,-2.8021,-2.8033,-2.7874,-2.7874,-2.7873,-2.7872,0,0,-2.7479,-2.7544,-2.7559,-2.7586,-2.7637,-2.7679,-2.7738,-2.7792,-2.7822,-2.7863,-2.7912,-2.7985,-2.7972,-2.8003,-2.801,-2.805,-2.8122,-2.803,-2.8031,-2.8045,-2.8217,-2.8228,-2.8242,-2.8119,-2.8121,-2.8123,-2.8214,0,-2.7563,-2.7666,-2.768,-2.7771,-2.7822,-2.7819,-2.787,-2.7907,-2.7927,-2.7972,-2.7993,-2.8045,-2.8024,-2.8042,-2.8082,-2.8105,-2.8157,-2.8099,-2.8164,-2.8166,-2.8152,-2.8258,-2.8269,-2.8352,-2.8225,-2.8227,-2.8229,0,-2.7674,-2.7719,-2.7816,-2.7862,-2.7884,-2.7929,-2.7981,-2.8025,-2.8067,-2.8079,-2.8114,-2.8117,-2.8178,-2.8143,-2.8227,-2.8188,-2.8216,-2.8232,-2.8235,-2.8241,-2.8201,-2.8265,-2.8379,-2.8391,-2.8248,-2.8246,-2.8245,0,-2.7732,-2.7817,-2.7887,-2.791,-2.7965,-2.7997,-2.8021,-2.8062,-2.8094,-2.814,-2.8161,-2.8213,-2.8241,-2.8281,-2.8298,-2.8271,-2.8381,-2.8348,-2.8392,-2.8392,-2.8414,-2.8412,-2.8533,-2.8434,-2.8434,-2.8433,-2.8433,0,-2.7823,-2.7883,-2.7914,-2.7956,-2.8023,-2.8038,-2.8104,-2.8127,-2.8164,-2.8211,-2.8212,-2.8256,-2.8276,-2.8324,-2.8338,-2.8405,-2.8418,-2.8429,-2.8432,-2.8428,-2.8427,-2.8446,-2.844,-2.8437,-2.8436,-2.8435,-2.8435,0,-2.7898,-2.7921,-2.7997,-2.8044,-2.8057,-2.8104,-2.8144,-2.8186,-2.8205,-2.8265,-2.828,-2.8311,-2.8367,-2.8389,-2.8457,-2.8466,-2.8544,-2.8543,-2.853,-2.8531,-2.8573,-2.8569,-2.871,-2.8729,-2.8618,-2.8619,-2.862,0,-2.7955,-2.8,-2.8053,-2.8085,-2.8111,-2.8162,-2.8196,-2.8214,-2.8248,-2.8302,-2.8337,-2.8393,-2.8439,-2.8529,-2.8557,-2.861,-2.8609,-2.8655,-2.8617,-2.8613,-2.8609,-2.8606,-2.8611,-2.8662,-2.8663,-2.8664,-2.8665,0,-2.8052,-2.8062,-2.811,-2.8164,-2.8204,-2.8246,-2.8287,-2.8314,-2.8338,-2.8377,-2.8435,-2.8471,-2.8542,-2.8597,-2.8652,-2.8677,-2.8675,-2.8677,-2.869,-2.8686,-2.8677,-2.8682,-2.8548,-2.8673,-2.8672,-2.8671,-2.8671,-2.8671,-2.8119,-2.816,-2.8204,-2.8258,-2.8292,-2.8331,-2.8372,-2.8398,-2.8447,-2.8506,-2.8514,-2.8576,-2.8619,-2.8692,-2.872,-2.8769,-2.8757,-2.8776,-2.878,-2.8785,-2.8787,-2.867,-2.8779,-2.8779,-2.8779,-2.8779,-2.8779,0,-2.8216,-2.8245,-2.8295,-2.8353,-2.8396,-2.8392,-2.8438,-2.8474,-2.8529,-2.857,-2.8616,-2.8683,-2.8738,-2.8771,-2.8827,-2.886,-2.886,-2.8873,-2.887,-2.8876,-2.8795,-2.8778,-2.8872,-2.8872,-2.8872,-2.8872,-2.8872,-2.8872,-2.8272,-2.8341,-2.8356,-2.8443,-2.8471,-2.8532,-2.8559,-2.8595,-2.8628,-2.8703,-2.8749,-2.8771,-2.8809,-2.8868,-2.8918,-2.8927,-2.8947,-2.8961,-2.8969,-2.8892,-2.8882,-2.8873,-2.8857,-2.8965,-2.8966,-2.9045,-2.9046,-2.9047]},{"header":{"parameterUnit":"m.s-1","parameterCategory":1,"la1":30.2991,"la2":30.254,"lo1":-89.0895,"lo2":-89.0444,"dy":0.0017,"dx":0.0017,"nx":28,"ny":28,"refTime":"2024-02-09T09:00:00:Z","depth":0,"parameterNumber":3,"parameterNumberName":"V-component_of_WINDS"},"data":[0,0,0,0,0,0,0,0,0,0,0,0,0,0,0,0,0,0,0,0,0,0,0,0,0,0,0,0,0,0,0,0,0,0,0,0,0,0,0,0,0,0,0,0,0,0,0,0,0,0,0,0,0,0,0,0,0,0,2.8679,2.8681,0,2.8822,2.8823,2.8825,2.8914,2.8915,2.8915,2.8916,2.9061,2.9064,2.9067,0,0,0,0,0,0,0,0,0,0,0,0,0,2.8488,2.8491,2.8679,2.8681,2.8683,2.8821,2.8823,2.8825,2.8914,2.8915,2.8915,2.8916,2.906,2.9064,2.9068,0,0,0,0,0,0,0,0,0,0,0,0,0,2.8595,2.8492,2.8679,2.8744,2.8751,2.8821,2.8823,2.8826,2.8914,2.8915,2.8915,2.8916,2.9058,2.9063,2.9068,2.9085,0,0,2.9084,2.9086,0,0,0,0,0,0,0,0,2.8588,2.8601,2.8733,2.874,2.8748,2.8851,2.8809,2.8913,2.8914,2.8852,2.8916,2.8916,2.899,2.9001,2.9026,2.9091,2.9098,2.9084,2.9087,2.909,2.9091,0,0,0,0,0,0,0,2.8581,2.8596,2.8736,2.8734,2.8744,2.8767,2.8783,2.8829,2.8915,2.8857,2.8864,2.888,2.8995,2.9021,2.903,2.91,2.9084,2.9089,2.9092,2.9094,2.9192,2.9191,0,0,0,0,0,0,2.8563,2.8589,2.8731,2.874,2.8668,2.877,2.8788,2.8817,2.8915,2.8931,2.8879,2.8884,2.9012,2.9024,2.9036,2.9065,2.909,2.9094,2.9097,2.9192,2.9191,2.9191,0,0,0,0,0,0,2.8559,2.8575,2.8725,2.8667,2.8687,2.8772,2.8804,2.8819,2.8846,2.8931,2.8947,2.889,2.9013,2.9028,2.9073,2.9071,2.9097,2.9101,2.9193,2.9192,2.9191,2.912,0,0,0,0,0,0,2.8553,2.8573,2.8579,2.8666,2.869,2.8759,2.8804,2.8822,2.8854,2.8862,2.8946,2.896,2.9015,2.9065,2.9078,2.9078,2.9105,2.9193,2.9192,2.9191,2.9123,2.9117,2.9112,0,0,0,0,0,2.8545,2.8552,2.8578,2.8595,2.8699,2.8759,2.8773,2.8835,2.8854,2.8862,2.8917,2.8958,2.9069,2.9069,2.9084,2.9086,2.9194,2.9193,2.9191,2.9126,2.9119,2.9112,0,0,0,0,0,0,2.846,2.8564,2.8595,2.8629,2.8685,2.8774,2.8785,2.8825,2.8876,2.888,2.8956,2.8974,2.9012,2.9054,2.9051,2.911,2.9136,2.9138,2.9081,2.9075,2.9069,2.9059,2.911,0,0,0,0,0,2.8446,2.8485,2.8574,2.8596,2.8622,2.8699,2.8727,2.8771,2.8831,2.8855,2.8913,2.8971,2.9019,2.9049,2.9098,2.913,2.9152,2.9139,2.9134,2.9129,2.913,2.9154,2.9151,2.9188,2.9188,2.9188,0,0,2.8416,2.8478,2.8497,2.8581,2.8628,2.8669,2.8718,2.8757,2.8788,2.8861,2.8907,2.8953,2.9022,2.9061,2.9082,2.9097,2.9125,2.9127,2.9123,2.9127,2.9153,2.9149,2.9146,2.9187,2.9187,2.9187,0,0,2.8382,2.8431,2.8458,2.8506,2.8579,2.863,2.8636,2.872,2.8754,2.8802,2.8859,2.8897,2.8978,2.9026,2.9061,2.9051,2.9092,2.9065,2.9036,2.9059,2.9056,2.9054,2.9053,2.9052,2.9066,2.9066,2.9066,0,2.8336,2.8398,2.8465,2.8503,2.854,2.8609,2.8637,2.868,2.8765,2.8789,2.8806,2.8912,2.8963,2.9017,2.9015,2.904,2.9052,2.9056,2.9051,2.905,2.9049,2.9049,2.9048,2.9062,2.9063,2.9063,2.9063,0,2.8339,2.8382,2.8394,2.8476,2.8514,2.8546,2.8621,2.8651,2.8693,2.8743,2.8794,2.8858,2.8924,2.894,2.8979,2.9,2.9008,2.9037,2.9065,2.9041,2.9042,2.9043,2.9057,2.9058,2.9059,2.906,0,0,2.8253,2.8376,2.8379,2.8419,2.8507,2.8542,2.8579,2.8644,2.867,2.8727,2.8762,2.8831,2.886,2.89,2.8946,2.8966,2.8958,2.8993,2.8996,2.8986,2.8989,2.8968,2.8967,2.8986,2.8986,2.8986,2.8984,0,2.8235,2.8305,2.8369,2.8416,2.8459,2.8527,2.8561,2.8619,2.8668,2.8712,2.8767,2.8816,2.8848,2.8873,2.8896,2.8954,2.896,2.8955,2.9021,2.9022,2.9002,2.8967,2.8944,2.8939,2.8985,2.8985,2.8985,0,2.8221,2.8278,2.833,2.8417,2.8438,2.8466,2.8533,2.8574,2.8643,2.8678,2.8724,2.8774,2.8819,2.8843,2.8908,2.8903,2.8934,2.8967,2.8969,2.8978,2.9003,2.8977,2.8939,2.8939,2.8986,2.8986,2.8986,0,2.8157,2.8246,2.829,2.8322,2.8424,2.8443,2.8487,2.8557,2.8593,2.8652,2.8677,2.8739,2.8774,2.8822,2.8889,2.89,2.8948,2.8976,2.898,2.8978,2.8987,2.8986,2.8955,2.9004,2.9004,2.9004,2.9004,0,2.813,2.816,2.8263,2.829,2.8327,2.8401,2.8436,2.8486,2.8548,2.8588,2.865,2.8686,2.8771,2.8818,2.887,2.8918,2.8932,2.8963,2.8977,2.8959,2.8955,2.898,2.8983,2.9004,2.9004,2.9004,2.9004,0,2.8064,2.8134,2.8187,2.8281,2.8306,2.8329,2.841,2.844,2.8494,2.8544,2.856,2.8644,2.8703,2.8775,2.8856,2.8891,2.8935,2.8955,2.8912,2.892,2.892,2.892,2.8906,2.8909,2.8954,2.8953,2.8953,0,2.8042,2.8068,2.8165,2.8197,2.8239,2.8288,2.8327,2.8402,2.844,2.8523,2.8543,2.8607,2.8662,2.8754,2.8823,2.8887,2.891,2.8901,2.892,2.8902,2.8913,2.8911,2.8915,2.8895,2.8894,2.8894,2.8893,0,2.7998,2.8033,2.8085,2.8152,2.8196,2.8252,2.831,2.8332,2.842,2.846,2.8521,2.8564,2.8649,2.8713,2.8786,2.8833,2.8878,2.8887,2.8892,2.8873,2.8848,2.8865,2.89,2.8887,2.8887,2.8888,2.8888,2.8888,2.7956,2.7983,2.8057,2.8115,2.8168,2.8222,2.8256,2.8315,2.8368,2.8444,2.8485,2.8546,2.8619,2.8723,2.8768,2.8818,2.8834,2.884,2.8842,2.8843,2.8838,2.884,2.8831,2.8832,2.8832,2.8832,2.8832,0,2.7917,2.7969,2.8022,2.8103,2.8149,2.8189,2.8257,2.8293,2.8347,2.8411,2.8465,2.8537,2.8601,2.8676,2.8745,2.8771,2.8794,2.8787,2.8786,2.8797,2.8819,2.8809,2.8767,2.8767,2.8767,2.8767,2.8767,2.8767,2.7902,2.7952,2.7996,2.8073,2.8125,2.8186,2.8222,2.8273,2.8325,2.8404,2.8457,2.8506,2.8576,2.8651,2.8712,2.8733,2.8756,2.8743,2.877,2.8789,2.8795,2.88,2.8792,2.8747,2.8747,2.8745,2.8745,2.8745]}]]